TimeAKST,TemperatureF,Dew PointF,Humidity,Sea Level PressureIn,VisibilityMPH,Wind Direction,Wind SpeedMPH,Gust SpeedMPH,PrecipitationIn,Events,Conditions,WindDirDegrees,DateUTC
12:16 AM,-9.4,-9999,N/A,29.32,10.0,ENE,4.6,-,N/A,,Clear,70,2013-11-23 09:16:00
12:36 AM,-9.4,-9999,N/A,29.32,10.0,Calm,Calm,-,N/A,,Clear,0,2013-11-23 09:36:00
12:56 AM,-11.2,-9999,N/A,29.32,10.0,ENE,4.6,-,N/A,,Clear,60,2013-11-23 09:56:00
1:16 AM,-11.2,-9999,N/A,29.33,10.0,Calm,Calm,-,N/A,,Clear,0,2013-11-23 10:16:00
1:36 AM,-11.2,-9999,N/A,29.33,10.0,NE,3.5,-,N/A,,Clear,50,2013-11-23 10:36:00
1:56 AM,-11.2,-9999,N/A,29.33,10.0,NE,4.6,-,N/A,,Clear,40,2013-11-23 10:56:00
2:16 AM,-11.2,-9999,N/A,29.34,10.0,NNE,5.8,-,N/A,,Clear,20,2013-11-23 11:16:00
2:36 AM,-13.0,-9999,N/A,29.34,10.0,NE,4.6,-,N/A,,Clear,50,2013-11-23 11:36:00
2:56 AM,-13.0,-9999,N/A,29.34,10.0,NE,5.8,-,N/A,,Clear,50,2013-11-23 11:56:00
3:16 AM,-13.0,-9999,N/A,29.35,10.0,NE,5.8,-,N/A,,Clear,40,2013-11-23 12:16:00
3:36 AM,-9999,-9999,N/A,29.35,10.0,NNE,5.8,-,N/A,,Clear,30,2013-11-23 12:36:00
3:56 AM,-9999,-9999,N/A,29.36,10.0,NE,4.6,-,N/A,,Clear,40,2013-11-23 12:56:00
4:16 AM,-13.0,-9999,N/A,29.37,10.0,NE,4.6,-,N/A,,Clear,40,2013-11-23 13:16:00
4:36 AM,-13.0,-9999,N/A,29.37,10.0,NE,3.5,-,N/A,,Clear,40,2013-11-23 13:36:00
4:56 AM,-13.0,-9999,N/A,29.37,10.0,NE,4.6,-,N/A,,Clear,40,2013-11-23 13:56:00
5:16 AM,-13.0,-9999,N/A,29.38,10.0,ENE,4.6,-,N/A,,Clear,60,2013-11-23 14:16:00
5:36 AM,-13.0,-9999,N/A,29.39,10.0,NE,3.5,-,N/A,,Clear,40,2013-11-23 14:36:00
5:56 AM,-14.8,-9999,N/A,29.40,10.0,Calm,Calm,-,N/A,,Clear,0,2013-11-23 14:56:00
6:16 AM,-14.8,-9999,N/A,29.39,10.0,Calm,Calm,-,N/A,,Clear,0,2013-11-23 15:16:00
6:36 AM,-14.8,-9999,N/A,29.40,10.0,Calm,Calm,-,N/A,,Clear,0,2013-11-23 15:36:00
6:56 AM,-14.8,-9999,N/A,29.41,10.0,Calm,Calm,-,N/A,,Clear,0,2013-11-23 15:56:00
7:16 AM,-13.0,-9999,N/A,29.41,10.0,Calm,Calm,-,N/A,,Clear,0,2013-11-23 16:16:00
7:36 AM,-14.8,-9999,N/A,29.42,10.0,Calm,Calm,-,N/A,,Clear,0,2013-11-23 16:36:00
7:56 AM,-14.8,-9999,N/A,29.42,10.0,NE,3.5,-,N/A,,Clear,40,2013-11-23 16:56:00
8:16 AM,-13.0,-9999,N/A,29.43,10.0,Calm,Calm,-,N/A,,Clear,0,2013-11-23 17:16:00
8:36 AM,-11.2,-9999,N/A,29.44,10.0,Calm,Calm,-,N/A,,Clear,0,2013-11-23 17:36:00
8:56 AM,-11.2,-9999,N/A,29.44,10.0,ENE,3.5,-,N/A,,Scattered Clouds,60,2013-11-23 17:56:00
9:16 AM,-11.2,-9999,N/A,29.46,10.0,Calm,Calm,-,N/A,,Mostly Cloudy,0,2013-11-23 18:16:00
9:36 AM,-11.2,-9999,N/A,29.47,10.0,Calm,Calm,-,N/A,,Clear,0,2013-11-23 18:36:00
9:56 AM,-11.2,-9999,N/A,29.48,10.0,Calm,Calm,-,N/A,,Mostly Cloudy,0,2013-11-23 18:56:00
10:16 AM,-11.2,-9999,N/A,29.50,10.0,Calm,Calm,-,N/A,,Mostly Cloudy,0,2013-11-23 19:16:00
10:36 AM,-9.4,-9999,N/A,29.51,10.0,Calm,Calm,-,N/A,,Scattered Clouds,0,2013-11-23 19:36:00
10:56 AM,-11.2,-9999,N/A,29.52,10.0,Calm,Calm,-,N/A,,Overcast,0,2013-11-23 19:56:00
11:16 AM,-7.6,-9999,N/A,29.53,10.0,Calm,Calm,-,N/A,,Overcast,0,2013-11-23 20:16:00
11:36 AM,-5.8,-9999,N/A,29.54,10.0,Calm,Calm,-,N/A,,Overcast,0,2013-11-23 20:36:00
11:56 AM,-5.8,-9999,N/A,29.55,10.0,Calm,Calm,-,N/A,,Overcast,0,2013-11-23 20:56:00
12:16 PM,-5.8,-9999,N/A,29.56,10.0,Calm,Calm,-,N/A,,Scattered Clouds,0,2013-11-23 21:16:00
12:36 PM,-7.6,-9999,N/A,29.56,10.0,Calm,Calm,-,N/A,,Scattered Clouds,0,2013-11-23 21:36:00
12:56 PM,-7.6,-9999,N/A,29.57,10.0,Calm,Calm,-,N/A,,Partly Cloudy,0,2013-11-23 21:56:00
1:16 PM,-5.8,-9999,N/A,29.58,10.0,Calm,Calm,-,N/A,,Clear,0,2013-11-23 22:16:00
1:36 PM,-5.8,-9999,N/A,29.59,10.0,Calm,Calm,-,N/A,,Clear,0,2013-11-23 22:36:00
1:56 PM,-5.8,-9999,N/A,29.60,7.0,SW,3.5,-,N/A,,Clear,220,2013-11-23 22:56:00
2:16 PM,-5.8,-9999,N/A,29.61,3.0,Calm,Calm,-,N/A,,Partly Cloudy,0,2013-11-23 23:16:00
2:36 PM,-4.0,-9999,N/A,29.62,3.0,SSW,3.5,-,N/A,,Clear,200,2013-11-23 23:36:00
2:56 PM,-2.2,-9999,N/A,29.63,1.2,Calm,Calm,-,N/A,,Clear,0,2013-11-23 23:56:00
3:16 PM,-2.2,-9999,N/A,29.63,10.0,Calm,Calm,-,N/A,,Clear,0,2013-11-24 00:16:00
3:36 PM,-2.2,-9999,N/A,29.63,10.0,South,4.6,-,N/A,,Clear,190,2013-11-24 00:36:00
3:56 PM,-2.2,-9999,N/A,29.64,10.0,South,3.5,-,N/A,,Mostly Cloudy,190,2013-11-24 00:56:00
4:16 PM,-2.2,-9999,N/A,29.65,10.0,South,5.8,-,N/A,,Overcast,180,2013-11-24 01:16:00
4:36 PM,-0.4,-9999,N/A,29.67,10.0,South,8.1,-,N/A,,Overcast,170,2013-11-24 01:36:00
4:56 PM,-0.4,-9999,N/A,29.68,10.0,SSE,5.8,-,N/A,,Overcast,150,2013-11-24 01:56:00
5:16 PM,-0.4,-9999,N/A,29.68,10.0,South,6.9,-,N/A,,Overcast,170,2013-11-24 02:16:00
5:36 PM,-0.4,-9999,N/A,29.69,10.0,SSE,9.2,-,N/A,,Overcast,160,2013-11-24 02:36:00
5:56 PM,-0.4,-9999,N/A,29.69,10.0,SSE,8.1,-,N/A,,Overcast,150,2013-11-24 02:56:00
6:16 PM,-0.4,-9999,N/A,29.70,10.0,SSE,5.8,-,N/A,,Overcast,150,2013-11-24 03:16:00
6:36 PM,-0.4,-9999,N/A,29.70,3.0,SE,8.1,-,N/A,,Overcast,140,2013-11-24 03:36:00
6:56 PM,-0.4,-9999,N/A,29.71,3.0,SE,6.9,-,N/A,,Overcast,140,2013-11-24 03:56:00
7:16 PM,-0.4,-9999,N/A,29.71,10.0,ESE,5.8,-,N/A,,Overcast,120,2013-11-24 04:16:00
7:36 PM,1.4,-9999,N/A,29.72,10.0,SSE,10.4,-,N/A,,Overcast,150,2013-11-24 04:36:00
7:56 PM,1.4,-9999,N/A,29.73,10.0,SE,10.4,16.1,N/A,,Overcast,140,2013-11-24 04:56:00
8:16 PM,1.4,-9999,N/A,29.73,10.0,SE,11.5,17.3,N/A,,Overcast,140,2013-11-24 05:16:00
8:36 PM,-0.4,-9999,N/A,29.74,10.0,SE,13.8,19.6,N/A,,Overcast,140,2013-11-24 05:36:00
8:56 PM,-0.4,-9999,N/A,29.74,9.0,SE,13.8,21.9,N/A,,Overcast,140,2013-11-24 05:56:00
9:16 PM,-0.4,-9999,N/A,29.75,10.0,SE,12.7,18.4,N/A,,Overcast,130,2013-11-24 06:16:00
9:36 PM,-0.4,-9999,N/A,29.76,8.0,SE,11.5,18.4,N/A,,Overcast,130,2013-11-24 06:36:00
9:56 PM,-0.4,-9999,N/A,29.77,10.0,SE,13.8,19.6,N/A,,Overcast,130,2013-11-24 06:56:00
10:16 PM,-0.4,-9999,N/A,29.78,6.0,SE,13.8,19.6,N/A,,Overcast,130,2013-11-24 07:16:00
10:36 PM,1.4,-9999,N/A,29.79,7.0,SE,9.2,16.1,N/A,,Overcast,140,2013-11-24 07:36:00
10:56 PM,1.4,-9999,N/A,29.79,10.0,SE,13.8,20.7,N/A,,Overcast,130,2013-11-24 07:56:00
11:16 PM,1.4,-9999,N/A,29.80,10.0,SE,8.1,16.1,N/A,,Overcast,130,2013-11-24 08:16:00
11:36 PM,1.4,-9999,N/A,29.81,10.0,ESE,11.5,18.4,N/A,,Overcast,120,2013-11-24 08:36:00
11:56 PM,1.4,-9999,N/A,29.81,10.0,ESE,11.5,23.0,N/A,,Overcast,120,2013-11-24 08:56:00